STARLINK-11326, 62010

Orbit data source: Space-Track

STARLINK-11326, 62010 is a payload satellite owned by SpaceX/Seattle (US) in LEO that was launched on Mon, 18 Nov 2024 UTC via an FALCON 9 launch vehicle from the Air Force Western Test Range (AFWTR). Payload-class satellites include a variety of spacecraft equipped with specific instruments for various scientific and technological missions. These include communications satellites like Starlink; space stations such as the ISS; scientific satellites like the Hubble; Earth observation satellites from companies like Planet Labs, Umbra, and HawkEye 360; GPS; miniature CubeSats for education and research; and military/defense satellites.

Loading next visibility...
Identifier
62010, 2024-213C
Orbit
LEO
Last TLE update
18 hours ago
Origin
Manufacturer
SpaceX/Seattle
Mission
Operational Commercial Communications
Bus & Motor
STARLINK V2M, Unknown motor
Mass
730 kg wet, ~700 kg dry
Launch date (UTC)
2024-11-18 (8 months ago)
Launch vehicle
FALCON 9
Launch site
Air Force Western Test Range (AFWTR)
Object type
Payload
Rocket body
Debris
Shape & HBR
Box + 2 Pan, 29 m
Radar Cross Section
36.964 m², Large (>1 m²)

Expand to show TLE details & history

TLE from 18 hours ago
0 STARLINK-11326
1 62010U 24213C   25187.22075357  .00223930  00000-0  18020-2 0  9997
2 62010  53.1561 176.3201 0001279  92.6763 267.4402 15.69733246 36206
Epoch: 2025-07-06T05:17Z
TLE epoch observation values (Epoch: 2025-07-06T05:17:53.108Z)
Latitude
0.00004°
Longitude
172.40128°
Altitude
360.613 km
Speed
7.694 km/s
True Right ascension
11h 45m 16s
True Declination
0° 00' 00"
Sunlit
Object was in daylight at epoch
Visualization orbit readout
Latitude
-32.70751°
Longitude
140.08365°
Altitude
369.527 km
Speed
7.687 km/s
Apparent Right ascension
05h 38m 16s
Apparent Declination
-70° 56' 20"
Sunlit
Object is in daylight
Visualization observer readout
Local Sidereal Time
11:27:29
Azimuth
203.939° SW
Elevation
-36.491°
Doppler factor
1
Orbital elements
Apogee altitude
360.783 km
Perigee altitude
359.06 km
Semi-major axis
6,738.059 km
Eccentricity
0.00013
Inclination
53.1561°
RAAN
176.3201°
Arg. of periapsis
92.6763°
True anomaly
Unknown
Mean anomaly
267.4402°
Eccentric anomaly
Unknown
Mean motion
3.92411 °/min
Orbital period
91.74 mins
BSTAR
0.001802
Loading maneuver chart data...
Loading SW <> Apogee altitude chart data...
Loading historical data...
Loading historical data...
Loading historical data...
Loading historical data...
Loading historical data...
Loading historical data...
Loading historical data...

STARLINK-11326 Visibility forecast

Observer location: undefined°, undefined°

Span
Click to sort rows by Start time (UTC) header in descending order
Start Az.
Max El. time (UTC)
Max El. Az.
Max El.
End time (UTC)
End Az.
5 mins2025-07-07 01:19:11.414Z193.674° SSW2025-07-07 01:21:11.414Z152.593° SSE23.84°2025-07-07 01:24:11.414Z72.189° E
|